Find Starlink 31876

NORAD ID: 59938 Int'l Des: 2024-106 Owner: SPXS Country: US Constellation: starlink operational
LEOCIRCULAR

リアルタイム位置

3D地球を読み込み中...

Starlink 31876について

説明を読み込み中...

次回通過

Passes for default location (London). Set your location on the main map for personalized predictions.

高度履歴

Loading altitude history...

軌道要素

1 59938U 24106S 26124.39789035 -.00000082 00000-0 65428-5 0 9997
2 59938 43.0033 17.8275 0001188 282.4866 77.5852 15.27572219109053
Epoch: May 4, 2026 • Age: 18 hours

現在のステータス

高度 482.6 km
速度 7.63 km/s
衛星直下点 7.61°N, 90.83°W
打ち上げ日 Jun 1, 2024
運用期間 1.9 years
タイプ internet

技術仕様

分類 Payload
質量 730.00 kg
乾燥質量 700.00 kg
総質量 730.00 kg
長さ 0.30 m
直径 4.10 m
スパン 29.00 m
形状 Box + pan
製造者 SPXS
バスタイプ Starlink V2M
フェーズステータス In Orbit
所有者/国 SPXS/US

Most Searched